EW4423 Weather Reports


Display with metric or nautical units.
time (UTC)temp
F
wind
direction
speed
MPH
gust
MPH
rain 1hr
in
rain 24hr
in
rain mn
in
humidity
%
barometer
mb
20260901104543 76 151 2.0 3.0 0.00 0.00 0.00 73 1018.5
20260901103018 76 151 0.0 3.0 0.00 0.00 0.00 72 1018.4
20260901101532 76 151 2.0 3.0 0.00 0.00 0.00 73 1018.2
20260901100008 76 153 2.0 2.0 0.00 0.00 0.00 72 1018.3
20260901094516 77 153 0.0 1.0 0.00 0.00 0.00 71 1018.2
20260901093035 78 153 1.0 3.0 0.00 0.00 0.00 69 1018.4
20260901091519 79 153 2.0 3.0 0.00 0.00 0.00 68 1018.5
20260901090031 79 154 2.0 3.0 0.00 0.00 0.00 67 1018.4
20260901084510 80 156 3.0 5.0 0.00 0.00 0.00 66 1018.4
20260901083020 80 151 4.0 6.0 0.00 0.00 0.00 65 1018.4
20260901081506 80 150 4.0 7.0 0.00 0.00 0.00 64 1018.3
20260901080006 81 148 4.0 6.0 0.00 0.00 0.00 64 1018.3
20260901074530 81 143 3.0 6.0 0.00 0.00 0.00 63 1018.4
20260901073008 81 153 4.0 8.0 0.00 0.00 0.00 63 1018.2
20260901071520 81 141 4.0 8.0 0.00 0.00 0.00 62 1018.2
20260901070025 82 139 3.0 6.0 0.00 0.00 0.00 62 1018.2
20260901064519 82 148 3.0 5.0 0.00 0.00 0.00 61 1018.0
20260901063007 82 146 3.0 6.0 0.00 0.00 0.00 60 1018.0
20260901061508 82 143 2.0 5.0 0.00 0.00 0.00 60 1018.0
20260901060017 83 135 2.0 5.0 0.00 0.00 0.00 58 1017.8
20260901054525 83 141 3.0 6.0 0.00 0.00 0.00 58 1017.7
20260901053010 84 124 3.0 6.0 0.00 0.00 0.00 57 1017.5
20260901051512 84 120 4.0 7.0 0.00 0.00 0.00 56 1017.4
20260901050015 85 139 4.0 7.0 0.00 0.00 0.00 55 1017.3
20260901044517 85 131 3.0 7.0 0.00 0.00 0.00 54 1017.3
20260901043029 85 129 4.0 7.0 0.00 0.00 0.00 54 1017.3
20260901041507 85 126 3.0 6.0 0.00 0.00 0.00 53 1017.1
20260901040014 86 135 2.0 7.0 0.00 0.00 0.00 52 1017.2
20260901034519 86 121 3.0 6.0 0.00 0.00 0.00 51 1017.2
20260901033021 87 124 3.0 7.0 0.00 0.00 0.00 50 1017.1
20260901031546 87 135 4.0 10.0 0.00 0.00 0.00 49 1017.1
20260901030009 88 136 5.0 8.0 0.00 0.00 0.00 48 1016.8
20260901024514 88 116 5.0 10.0 0.00 0.00 0.00 48 1016.7
20260901023032 88 124 6.0 10.0 0.00 0.00 0.00 47 1016.6
20260901021518 88 106 4.0 7.0 0.00 0.00 0.00 47 1016.4
20260901020025 88 112 4.0 8.0 0.00 0.00 0.00 46 1016.3
20260901014510 89 114 4.0 6.0 0.00 0.00 0.00 45 1016.2
20260901013023 90 115 5.0 6.0 0.00 0.00 0.00 44 1016.1
20260901011514 91 108 4.0 7.0 0.00 0.00 0.00 43 1016.0
20260901010003 92 97 4.0 7.0 0.00 0.00 0.00 42 1015.9
20260901004508 93 108 3.0 6.0 0.00 0.00 0.00 40 1015.9
20260901003009 95 112 4.0 7.0 0.00 0.00 0.00 37 1015.9
20260901001512 96 110 4.0 6.0 0.00 0.00 0.00 36 1015.8
20260901000012 97 143 5.0 10.0 0.00 0.00 0.00 35 1015.7
20260831234508 98 115 6.0 8.0 0.00 0.00 0.00 35 1015.7
20260831233012 98 146 3.0 5.0 0.00 0.00 0.00 36 1015.6
20260831231509 96 122 1.0 2.0 0.00 0.00 0.00 37 1015.7
20260831230012 96 126 2.0 6.0 0.00 0.00 0.00 37 1015.8
20260831224512 97 112 6.0 12.0 0.00 0.00 0.00 36 1015.9
20260831223010 99 98 7.0 10.0 0.00 0.00 0.00 34 1015.9
20260831221513 97 103 7.0 11.0 0.00 0.00 0.00 36 1016.0
20260831220014 98 103 10.0 13.0 0.00 0.00 0.00 35 1016.0
20260831214514 101 124 9.0 15.0 0.00 0.00 0.00 34 1016.1
20260831213014 97 90 5.0 10.0 0.00 0.00 0.00 35 1016.2
20260831211507 100 121 6.0 12.0 0.00 0.00 0.00 32 1016.4
20260831210019 102 80 5.0 9.0 0.00 0.00 0.00 31 1016.4
20260831204516 104 120 8.0 17.0 0.00 0.00 0.00 31 1016.8
20260831203013 102 129 4.0 9.0 0.00 0.00 0.00 31 1017.0
20260831201519 101 92 2.0 12.0 0.00 0.00 0.00 33 1017.3
20260831200012 101 96 6.0 13.0 0.00 0.00 0.00 32 1017.5
20260831194515 103 133 6.0 12.0 0.00 0.00 0.00 34 1017.8
20260831193017 101 162 3.0 9.0 0.00 0.00 0.00 34 1017.8
20260831191505 98 139 7.0 10.0 0.00 0.00 0.00 38 1018.1
20260831190007 101 117 6.0 12.0 0.00 0.00 0.00 34 1018.2
20260831184506 100 170 3.0 14.0 0.00 0.00 0.00 36 1018.2
20260831183017 98 139 0.0 10.0 0.00 0.00 0.00 39 1018.4
20260831181520 95 44 0.0 5.0 0.00 0.00 0.00 44 1018.6
20260831180003 95 96 2.0 5.0 0.00 0.00 0.00 45 1018.8
20260831174506 94 127 1.0 5.0 0.00 0.00 0.00 44 1018.9
20260831173018 97 285 2.0 11.0 0.00 0.00 0.00 41 1019.3
20260831171516 97 135 6.0 8.0 0.00 0.00 0.00 42 1019.7
20260831170024 97 191 4.0 8.0 0.00 0.00 0.00 43 1019.7
20260831164507 94 217 2.0 9.0 0.00 0.00 0.00 44 1019.8
20260831163010 93 223 4.0 9.0 0.00 0.00 0.00 46 1019.9
20260831161518 93 237 3.0 12.0 0.00 0.00 0.00 46 1020.1
20260831160011 92 217 3.0 7.0 0.00 0.00 0.00 48 1020.0
20260831154547 92 188 3.0 10.0 0.00 0.00 0.00 47 1020.0
20260831153009 91 181 5.0 9.0 0.00 0.00 0.00 50 1019.9
20260831151514 90 181 5.0 7.0 0.00 0.00 0.00 51 1019.9
20260831150033 89 171 3.0 6.0 0.00 0.00 0.00 55 1019.8
20260831144512 88 243 7.0 9.0 0.00 0.00 0.00 55 1019.6
20260831143023 86 217 3.0 7.0 0.00 0.00 0.00 61 1019.5
20260831141525 85 243 4.0 7.0 0.00 0.00 0.00 64 1019.4
20260831140016 83 222 3.0 6.0 0.00 0.00 0.00 66 1019.5
20260831134524 82 191 3.0 5.0 0.00 0.00 0.00 67 1019.3
20260831133022 81 180 3.0 4.0 0.00 0.00 0.00 67 1019.2
20260831131523 80 165 2.0 3.0 0.00 0.00 0.00 68 1019.0
20260831130016 78 175 2.0 3.0 0.00 0.00 0.00 69 1018.8
20260831124535 77 174 1.0 2.0 0.00 0.00 0.00 71 1018.6
20260831123026 76 174 2.0 3.0 0.00 0.00 0.00 71 1018.5
20260831121530 76 173 2.0 3.0 0.00 0.00 0.00 71 1018.3
20260831120024 77 172 1.0 2.0 0.00 0.00 0.00 71 1018.1
20260831114541 77 181 3.0 4.0 0.00 0.00 0.00 70 1017.9
20260831113015 77 199 2.0 3.0 0.00 0.00 0.00 70 1017.9
20260831111524 77 210 4.0 5.0 0.00 0.00 0.00 68 1017.7
20260831110026 78 236 2.0 6.0 0.00 0.00 0.00 67 1017.5